sat.trackr.live / text

‹ back to catalog

STARLINK-37216

NORAD 68391 · 2026-063M

PAYLOAD ACTIVE UNKNOWN

§ Identity

Operator
Country
US
Launch date
2026-03-26
Launch site
AFWTR
Launch vehicle
Mass (kg)
RCS (m²)

Purposes: comms

External: N2YO · Heavens-Above · Gunter

§ Orbital elements

Epoch: 2026-09-19T16:40:29.657280Z

Period
93.91 min
Inclination
97.2851°
Eccentricity
0.0002936
Mean motion
15.33437874 rev/d
Perigee alt
463.6 km
Apogee alt
467.6 km
Semi-major
6,843.7 km
B*
5.0729e-4
RAAN
43.5381°
Arg perigee
98.1727°
Mean anomaly
261.9849°
Rev number
2,762

§ Raw data

STARLINK-372161 68391U 26063M   26262.69478770  .00016335  00000+0  50729-3 0  99932 68391  97.2851  43.5381 0002936  98.1727 261.9849 15.33437874 27620

JSON: /api/v1/satellites/68391 · /tle

For live sub-satellite position, see the globe view (requires WebGL).

§ Visibility from observer

Set your observer location to see the next 7 days of passes ≥ 10°. The values pass through the URL so the page stays shareable.

No JS? Fill the form by hand. The geolocation button needs JavaScript.